Location: Le Gr�zie
(43.6000°N, 13.5000°E)
Time: 01:55:56
(UTC+00:00)

Mayak - Pass Details

Date: 09 April 2020
Orbit: 581 x 600 km, 97.5° (Epoch: 05 June)

Event Time Altitude Azimuth Distance (km) Brightness Sun altitude
Rises 22:01:25 0° 3° (N) 2,820 ? -36.3°
Reaches altitude 10° 22:03:44 10° 354° (N) 1,913 ? -36.4°
Enters shadow 22:04:28 14° 349° (NNW) 1,643 ? -36.5°
